DW7251 Weather Reports


Display with metric or nautical units.
time (UTC)temp
F
wind
direction
speed
MPH
gust
MPH
rain 1hr
in
rain 24hr
in
rain mn
in
humidity
%
barometer
mb
20260902220800 55 333 1.0 7.0 0.00 0.00 0.00 74 1010.2
20260902220253 55 49 1.0 6.0 0.00 0.00 0.00 74 1010.1
20260902215742 54 1 0.0 5.0 0.00 0.00 0.00 74 1010.1
20260902215233 54 49 1.0 5.0 0.00 0.00 0.00 74 1010.2
20260902214718 54 68 1.0 5.0 0.00 0.00 0.00 75 1010.2
20260902213557 53 47 0.0 3.0 0.00 0.00 0.00 75 1009.9
20260902213042 53 23 1.0 3.0 0.00 0.00 0.00 75 1010.0
20260902212536 53 35 0.0 3.0 0.00 0.00 0.00 75 1009.8
20260902212019 52 329 0.0 3.0 0.00 0.00 0.00 75 1009.7
20260902211509 52 43 0.0 2.0 0.00 0.00 0.00 75 1009.7
20260902210347 52 9 0.0 3.0 0.00 0.00 0.00 74 1009.5
20260902205833 53 32 0.0 3.0 0.00 0.00 0.00 73 1009.4
20260902204712 53 2 1.0 6.0 0.00 0.00 0.00 73 1009.2
20260902203556 53 23 1.0 6.0 0.00 0.00 0.00 73 1009.0
20260902203045 53 328 1.0 7.0 0.00 0.00 0.00 73 1009.0
20260902202547 53 327 1.0 7.0 0.00 0.00 0.00 73 1009.0
20260902202031 53 23 1.0 7.0 0.00 0.00 0.00 73 1009.0
20260902201518 53 338 1.0 7.0 0.00 0.00 0.00 73 1009.1
20260902201008 53 304 2.0 7.0 0.00 0.00 0.00 73 1009.0
20260902195831 53 9 1.0 7.0 0.00 0.00 0.00 72 1009.2
20260902195330 53 343 2.0 7.0 0.00 0.00 0.00 72 1009.1
20260902194812 53 331 1.0 6.0 0.00 0.00 0.00 73 1008.9
20260902194312 53 267 1.0 6.0 0.00 0.00 0.00 73 1008.9
20260902193801 52 350 0.0 6.0 0.00 0.00 0.00 73 1008.9
20260902193245 52 331 1.0 6.0 0.00 0.00 0.00 73 1009.2
20260902192726 52 355 1.0 6.0 0.00 0.00 0.00 72 1009.1
20260902192214 52 6 1.0 5.0 0.00 0.00 0.00 72 1009.1
20260902191658 52 31 0.0 4.0 0.00 0.00 0.00 72 1009.0
20260902191207 53 8 0.0 4.0 0.00 0.00 0.00 71 1008.8
20260902190023 53 2 1.0 7.0 0.00 0.00 0.00 70 1008.8
20260902185524 54 293 2.0 7.0 0.00 0.00 0.00 69 1008.6
20260902185012 54 297 1.0 7.0 0.00 0.00 0.00 69 1008.6
20260902184520 54 309 2.0 7.0 0.00 0.00 0.00 69 1008.4
20260902184015 54 309 2.0 7.0 0.00 0.00 0.00 69 1008.4
20260902183506 54 42 2.0 6.0 0.00 0.00 0.00 69 1008.4
20260902182948 54 272 1.0 6.0 0.00 0.00 0.00 69 1008.6
20260902182454 54 313 1.0 6.0 0.00 0.00 0.00 69 1008.5
20260902181317 54 288 1.0 8.0 0.00 0.00 0.00 69 1008.3
20260902180821 54 332 2.0 8.0 0.00 0.00 0.00 69 1008.3
20260902180318 54 70 3.0 8.0 0.00 0.00 0.00 69 1008.4
20260902175809 54 343 3.0 7.0 0.00 0.00 0.00 69 1008.5
20260902175254 54 296 2.0 6.0 0.00 0.00 0.00 69 1008.4
20260902174802 54 314 3.0 9.0 0.00 0.00 0.00 69 1008.5
20260902174247 54 12 2.0 9.0 0.00 0.00 0.00 69 1008.6
20260902173733 54 319 2.0 9.0 0.00 0.00 0.00 69 1008.5
20260902173238 54 125 2.0 9.0 0.00 0.00 0.00 70 1008.6
20260902172720 54 283 2.0 8.0 0.00 0.00 0.00 70 1008.6
20260902172218 54 352 2.0 8.0 0.00 0.00 0.00 70 1008.7
20260902171715 54 359 1.0 7.0 0.00 0.00 0.00 70 1008.8
20260902171203 54 295 1.0 7.0 0.00 0.00 0.00 70 1008.8
20260902170028 54 2 1.0 8.0 0.00 0.00 0.00 70 1008.8
20260902165509 54 272 1.0 8.0 0.00 0.00 0.00 71 1008.9
20260902165009 54 286 1.0 8.0 0.00 0.00 0.00 71 1008.9
20260902163211 54 2 1.0 6.0 0.00 0.00 0.00 71 1009.3
20260902162712 54 47 1.0 6.0 0.00 0.00 0.00 71 1009.3
20260902162208 54 324 2.0 8.0 0.00 0.00 0.00 71 1009.4
20260902161716 54 301 2.0 8.0 0.00 0.00 0.00 72 1009.5
20260902161225 54 248 2.0 8.0 0.00 0.00 0.00 72 1009.5
20260902160734 54 312 2.0 8.0 0.00 0.00 0.00 72 1009.6
20260902160226 54 306 2.0 7.0 0.00 0.00 0.00 73 1009.6
20260902155706 53 333 1.0 7.0 0.00 0.00 0.00 73 1009.7
20260902155210 53 347 2.0 8.0 0.00 0.00 0.00 73 1009.6
20260902154700 53 13 1.0 8.0 0.00 0.00 0.00 74 1009.6
20260902152921 53 338 2.0 6.0 0.00 0.00 0.00 74 1009.7
20260902151803 53 27 0.0 5.0 0.00 0.00 0.00 75 1009.7
20260902151306 53 315 1.0 5.0 0.00 0.00 0.00 75 1009.7
20260902150139 53 303 1.0 6.0 0.00 0.00 0.00 75 1009.7
20260902145635 53 342 1.0 6.0 0.00 0.00 0.00 75 1009.7
20260902145116 53 321 1.0 6.0 0.00 0.00 0.00 75 1009.7
20260902144606 53 339 1.0 6.0 0.00 0.00 0.00 75 1009.7
20260902143440 53 8 1.0 5.0 0.00 0.00 0.00 74 1009.6
20260902142933 53 283 1.0 5.0 0.00 0.00 0.00 74 1009.7
20260902142422 53 16 0.0 5.0 0.00 0.00 0.00 74 1009.7
20260902141911 53 4 0.0 5.0 0.00 0.00 0.00 74 1009.9
20260902141356 53 341 0.0 1.0 0.00 0.00 0.00 72 1009.9
20260902140840 53 354 0.0 5.0 0.00 0.00 0.00 71 1010.0
20260902140340 54 331 0.0 2.0 0.00 0.00 0.00 71 1010.0
20260902135828 54 355 0.0 2.0 0.00 0.00 0.00 71 1009.9
20260902135321 54 3 0.0 4.0 0.00 0.00 0.00 71 1010.0
20260902134831 54 331 0.0 4.0 0.00 0.00 0.00 70 1010.0
20260902134324 54 286 0.0 4.0 0.00 0.00 0.00 70 1010.0
20260902133813 54 281 0.0 4.0 0.00 0.00 0.00 70 1010.1
20260902133257 54 306 0.0 5.0 0.00 0.00 0.00 70 1010.1
20260902132753 54 309 1.0 5.0 0.00 0.00 0.00 70 1010.1
20260902132249 54 8 1.0 5.0 0.00 0.00 0.00 70 1010.1
20260902131751 55 291 1.0 6.0 0.00 0.00 0.00 70 1010.2
20260902131244 55 272 1.0 6.0 0.00 0.00 0.00 70 1010.3
20260902130109 55 301 1.0 6.0 0.00 0.00 0.00 70 1010.5
20260902125555 55 340 0.0 6.0 0.00 0.00 0.00 70 1010.5
20260902125058 55 359 1.0 6.0 0.00 0.00 0.00 70 1010.6
20260902124545 55 295 1.0 6.0 0.00 0.00 0.00 69 1010.7
20260902124051 55 295 1.0 6.0 0.00 0.00 0.00 69 1010.7
20260902123528 55 317 1.0 6.0 0.00 0.00 0.00 69 1010.8
20260902123030 55 35 1.0 5.0 0.00 0.00 0.00 70 1010.8
20260902122516 55 295 1.0 8.0 0.00 0.00 0.00 70 1010.9
20260902122001 55 302 1.0 8.0 0.00 0.00 0.00 71 1010.9
20260902121442 55 309 1.0 8.0 0.00 0.00 0.00 69 1011.1
20260902120933 55 320 1.0 8.0 0.00 0.00 0.00 68 1011.1
20260902115815 56 302 0.0 4.0 0.00 0.00 0.00 68 1011.2
20260902115300 56 341 0.0 4.0 0.00 0.00 0.00 68 1011.1
20260902114143 56 324 0.0 5.0 0.00 0.00 0.00 67 1011.1
20260902113650 57 339 1.0 5.0 0.00 0.00 0.00 67 1011.1
20260902113139 57 250 1.0 7.0 0.00 0.00 0.00 68 1011.1
20260902112629 57 38 1.0 7.0 0.00 0.00 0.00 68 1011.1
20260902111457 57 32 1.0 6.0 0.00 0.00 0.00 69 1011.2
20260902110318 56 343 0.0 2.0 0.00 0.00 0.00 74 1011.2
20260902105801 56 1 0.0 0.0 0.00 0.00 0.00 74 1011.2
20260902105311 56 293 0.0 1.0 0.00 0.00 0.00 74 1011.2
20260902104758 56 319 0.0 3.0 0.00 0.00 0.00 74 1011.1
20260902103633 56 134 0.0 0.0 0.00 0.00 0.00 75 1011.1
20260902103140 56 134 0.0 0.0 0.00 0.00 0.00 75 1011.1
20260902102640 56 134 0.0 0.0 0.00 0.00 0.00 75 1011.2
20260902101520 56 134 0.0 0.0 0.00 0.00 0.00 74 1011.2
20260902101011 56 134 0.0 0.0 0.00 0.00 0.00 74 1011.2
20260902100511 56 134 0.0 0.0 0.00 0.00 0.00 74 1011.1
20260902095957 56 134 0.0 0.0 0.00 0.00 0.00 74 1011.1
20260902095456 56 134 0.0 0.0 0.00 0.00 0.00 75 1011.0
20260902094959 56 134 0.0 0.0 0.00 0.00 0.00 75 1011.0
20260902093818 55 134 0.0 0.0 0.00 0.00 0.00 75 1010.9
20260902092631 55 134 0.0 0.0 0.00 0.00 0.00 75 1010.8
20260902092124 55 134 0.0 0.0 0.00 0.00 0.00 75 1010.6
20260902091631 55 134 0.0 0.0 0.00 0.00 0.00 75 1010.6
20260902091116 55 134 0.0 0.0 0.00 0.00 0.00 75 1010.5
20260902090626 55 134 0.0 0.0 0.00 0.00 0.00 75 1010.5
20260902085447 55 134 0.0 0.0 0.00 0.00 0.00 75 1010.6
20260902084938 55 134 0.0 0.0 0.00 0.00 0.00 75 1010.5
20260902083812 55 134 0.0 0.0 0.00 0.00 0.00 73 1010.4
20260902082023 56 134 0.0 0.0 0.00 0.00 0.00 72 1010.5
20260902081526 56 134 0.0 0.0 0.00 0.00 0.00 72 1010.5
20260902081011 56 134 0.0 0.0 0.00 0.00 0.00 71 1010.5
20260902080506 56 134 0.0 0.0 0.00 0.00 0.00 71 1010.4
20260902080011 57 134 0.0 0.0 0.00 0.00 0.00 71 1010.4
20260902075505 57 134 0.0 0.0 0.00 0.00 0.00 70 1010.4
20260902074954 57 134 0.0 0.0 0.00 0.00 0.00 70 1010.4
20260902073217 58 106 0.0 2.0 0.00 0.00 0.00 70 1010.3
20260902072715 58 104 0.0 2.0 0.00 0.00 0.00 70 1010.4
20260902071548 59 201 0.0 1.0 0.00 0.00 0.00 70 1010.3
20260902071043 59 149 0.0 0.0 0.00 0.00 0.00 70 1010.4
20260902070526 59 189 0.0 3.0 0.00 0.00 0.00 70 1010.4
20260902070023 59 130 0.0 3.0 0.00 0.00 0.00 70 1010.4
20260902065504 59 152 0.0 3.0 0.00 0.00 0.00 70 1010.4
20260902064946 59 155 1.0 5.0 0.00 0.00 0.00 71 1010.4
20260902063816 60 153 1.0 5.0 0.00 0.00 0.00 71 1010.6
20260902063324 60 165 2.0 5.0 0.00 0.00 0.00 70 1010.6
20260902062806 60 118 2.0 4.0 0.00 0.00 0.00 70 1010.7
20260902062305 60 180 1.0 4.0 0.00 0.00 0.00 69 1010.8
20260902061805 60 137 1.0 4.0 0.00 0.00 0.00 69 1010.9
20260902061310 60 222 1.0 4.0 0.00 0.00 0.00 70 1010.9
20260902055552 59 134 1.0 5.0 0.00 0.00 0.00 71 1011.1
20260902055054 59 186 1.0 6.0 0.00 0.00 0.00 70 1011.1
20260902054544 59 181 1.0 6.0 0.00 0.00 0.00 70 1011.2
20260902054036 60 206 1.0 6.0 0.00 0.00 0.00 70 1011.2
20260902053540 60 186 1.0 6.0 0.00 0.00 0.00 69 1011.3
20260902053045 60 140 1.0 4.0 0.00 0.00 0.00 69 1011.4
20260902052534 60 120 1.0 4.0 0.00 0.00 0.00 69 1011.4
20260902052030 60 166 1.0 4.0 0.00 0.00 0.00 71 1011.5
20260902051515 60 201 2.0 4.0 0.00 0.00 0.00 70 1011.5
20260902051015 60 179 1.0 4.0 0.00 0.00 0.00 68 1011.6
20260902050514 60 135 1.0 6.0 0.00 0.00 0.00 68 1011.6
20260902050002 60 142 1.0 6.0 0.00 0.00 0.00 69 1011.6
20260902044832 60 179 2.0 6.0 0.00 0.00 0.00 68 1011.8
20260902044330 60 138 2.0 4.0 0.00 0.00 0.00 69 1011.8
20260902043810 60 133 2.0 4.0 0.00 0.00 0.00 67 1011.8
20260902043251 60 144 1.0 4.0 0.00 0.00 0.00 67 1011.7
20260902042123 60 137 1.0 4.0 0.00 0.00 0.00 68 1011.8
20260902041611 60 181 1.0 4.0 0.00 0.00 0.00 67 1011.8
20260902041115 60 125 1.0 4.0 0.00 0.00 0.00 68 1011.8
20260902040604 60 211 1.0 5.0 0.00 0.00 0.00 67 1011.8
20260902035450 60 171 1.0 5.0 0.00 0.00 0.00 67 1012.0
20260902034959 60 300 1.0 4.0 0.00 0.00 0.00 67 1012.0
20260902034450 60 216 2.0 4.0 0.00 0.00 0.00 67 1012.0
20260902033957 60 182 1.0 4.0 0.00 0.00 0.00 65 1012.0
20260902032204 61 142 0.0 4.0 0.00 0.00 0.00 66 1012.3
20260902031701 61 145 0.0 4.0 0.00 0.00 0.00 67 1012.4
20260902031202 61 104 0.0 4.0 0.00 0.00 0.00 66 1012.5
20260902030650 61 170 0.0 3.0 0.00 0.00 0.00 68 1012.6
20260902030153 60 253 0.0 3.0 0.00 0.00 0.00 67 1012.6
20260902025635 60 217 0.0 3.0 0.00 0.00 0.00 68 1012.8
20260902024514 60 78 0.0 3.0 0.00 0.00 0.00 68 1013.2
20260902024015 60 48 0.0 3.0 0.00 0.00 0.00 68 1013.3
20260902023505 60 41 0.0 4.0 0.00 0.00 0.00 68 1013.4
20260902022340 60 122 0.0 4.0 0.00 0.00 0.00 67 1013.6
20260902021842 60 140 0.0 4.0 0.00 0.00 0.00 69 1013.6
20260902021349 59 51 0.0 4.0 0.00 0.00 0.00 68 1013.7
20260902020850 59 61 0.0 4.0 0.00 0.00 0.00 68 1013.8
20260902020342 60 94 0.0 4.0 0.00 0.00 0.00 67 1013.9
20260902015840 60 329 0.0 4.0 0.00 0.00 0.00 68 1013.9
20260902015322 60 269 0.0 4.0 0.00 0.00 0.00 67 1013.8
20260902014825 60 52 0.0 4.0 0.00 0.00 0.00 67 1013.9
20260902014317 61 16 0.0 4.0 0.00 0.00 0.00 67 1014.0
20260902013823 61 297 0.0 3.0 0.00 0.00 0.00 66 1014.0
20260902013306 61 348 0.0 3.0 0.00 0.00 0.00 65 1014.0
20260902012759 62 325 0.0 3.0 0.00 0.00 0.00 65 1014.1
20260902012257 61 316 0.0 3.0 0.00 0.00 0.00 67 1014.1
20260902011741 60 302 0.0 3.0 0.00 0.00 0.00 67 1014.3
20260902011247 60 26 0.0 3.0 0.00 0.00 0.00 68 1014.3
20260902010129 59 224 0.0 3.0 0.00 0.00 0.00 71 1014.4
20260902005639 58 238 0.0 3.0 0.00 0.00 0.00 71 1014.5
20260902005145 59 261 0.0 4.0 0.00 0.00 0.00 71 1014.5
20260902004650 58 293 0.0 4.0 0.00 0.00 0.00 71 1014.6
20260902004138 59 309 1.0 4.0 0.00 0.00 0.00 71 1014.6
20260902003624 59 102 1.0 4.0 0.00 0.00 0.00 71 1014.6
20260902003114 59 255 1.0 5.0 0.00 0.00 0.00 71 1014.6
20260902002611 59 275 1.0 5.0 0.00 0.00 0.00 72 1014.5
20260902002054 58 298 1.0 5.0 0.00 0.00 0.00 72 1014.7
20260902001536 58 317 1.0 5.0 0.00 0.00 0.00 73 1014.7
20260902001033 58 295 1.0 5.0 0.00 0.00 0.00 74 1014.7
20260902000524 58 253 1.0 5.0 0.00 0.00 0.00 73 1014.8
20260902000029 58 28 1.0 4.0 0.00 0.00 0.00 74 1014.8
20260901235516 57 54 1.0 5.0 0.00 0.00 0.00 73 1014.9
20260901235014 57 306 1.0 5.0 0.00 0.00 0.00 74 1014.9
20260901234508 57 246 1.0 5.0 0.00 0.00 0.00 74 1014.8
20260901234007 57 31 1.0 5.0 0.00 0.00 0.00 75 1014.9
20260901233457 56 306 0.0 5.0 0.00 0.00 0.00 76 1014.9
20260901233001 56 273 1.0 5.0 0.00 0.00 0.00 76 1014.9
20260901232510 56 320 1.0 4.0 0.00 0.00 0.00 77 1015.0
20260901231343 56 309 1.0 8.0 0.00 0.00 0.00 75 1014.9
20260901230841 56 294 1.0 8.0 0.00 0.00 0.00 76 1014.9
20260901230327 56 272 1.0 8.0 0.00 0.00 0.00 76 1015.0
20260901225822 56 296 1.0 4.0 0.00 0.00 0.00 76 1014.9
20260901225327 56 293 1.0 4.0 0.00 0.00 0.00 77 1014.9
20260901224829 56 272 1.0 4.0 0.00 0.00 0.00 77 1014.9
20260901224326 56 287 1.0 4.0 0.00 0.00 0.00 77 1014.9
20260901223829 55 305 1.0 6.0 0.00 0.00 0.00 78 1014.9
20260901222710 55 307 1.0 7.0 0.00 0.00 0.00 78 1014.9
20260901222209 55 317 1.0 7.0 0.00 0.00 0.00 78 1014.8
20260901221718 55 208 1.0 7.0 0.00 0.00 0.00 79 1014.7
20260901221215 55 326 1.0 7.0 0.00 0.00 0.00 79 1014.6